Regional Weather Roundup
Issued by NWS Bismarck, ND

Home | Current Version | Previous Version | Text Only | Print | Product List | Glossary On
Versions: 1 2 3 4 5 6 7 8 9 10 11 12 13 14 15 16 17 18 19 20 21 22 23 24 25 26 27 28 29 30 31 32 33 34 35 36 37 38 39 40 41 42 43 44 45 46 47 48 49 50
000
ASUS43 KBIS 221210
RWRBIS

NWR BROADCAST TEXT
NATIONAL WEATHER SERVICE BISMARCK ND
700 AM CDT MON SEP 22 2014

NOTE: "FAIR" INDICATES FEW OR NO CLOUDS BELOW 12,000 FEET WITH NO
SIGNIFICANT WEATHER AND/OR OBSTRUCTIONS TO VISIBILITY.


CITY           SKY/WX    TMP DP  RH WIND       PRES   REMARKS
WILLISTON      CLEAR     40  36  86 N5        30.06F
MINOT          CLEAR     49  40  71 SW6       30.10F
MINOT AFB      CLEAR     48  42  81 S5        30.10S
BISMARCK       CLEAR     44  41  89 NE8       30.16F
DICKINSON      CLEAR     45  38  76 S13       30.07F
GARRISON         N/A     45  42  89 SE5       30.13S
HETTINGER ARPT CLEAR     47  38  71 SE3       30.12F
JAMESTOWN      CLEAR     45  42  89 S5        30.17S
BEACH            N/A     48  37  66 S8        30.07F
CARRINGTON     FAIR      48  46  93 SW8       30.17S
CROSBY         FAIR      45  43  93 S8        30.07F
HARVEY         FAIR      41  41 100 CALM      30.15S
HAZEN          FAIR      36  36 100 CALM      30.13F
LINTON         FAIR      45  43  93 SE10      30.17F
MANDAN         FAIR      46  41  81 S7        30.16S
OAKES            N/A     41  41 100 S8        30.21S
RUGBY          FAIR      46  43  87 S5        30.13S
STANLEY        FAIR      41  41 100 CALM      30.11S
TIOGA          FAIR      34  34 100 E6        30.12F
WATFORD CITY   FAIR      45  37  76 SE6       30.06S HAZE
$$

CITY           SKY/WX    TMP DP  RH WIND       PRES   REMARKS
GRAND FORKS    CLEAR     45  43  93 S7        30.14S
GRAND FORKS AF CLEAR     47  47  97 SW6       30.14F
DEVILS LAKE    CLEAR     54  43  66 SW7       30.13S
FARGO          CLEAR     48  45  89 S7        30.19S
CANDO          FAIR      39  39 100 CALM      30.14S
CAVALIER       FAIR      54  45  71 SW8       30.11R
GRAFTON        FAIR      41  41 100 SW7       30.12F
GWINNER        SUNNY     46  45  93 SW8       30.22S
LANGDON        FAIR      45  41  87 SW9       30.13S
ROLLA          FAIR      48  43  81 SW9       30.13F
WALHALLA         N/A     55  46  71 W6        30.10S
$$

CITY           SKY/WX    TMP DP  RH WIND       PRES   REMARKS
ABERDEEN       CLEAR     40  38  93 S7        30.23S
MOBRIDGE       CLEAR     48  46  93 SE8       30.16F
BUFFALO          N/A     49  36  61 E7        30.03F
RAPID CITY     MOCLDY    48  39  71 SE6       30.13F
GLASGOW        CLEAR     48  35  60 E14       29.96F
SIDNEY         CLEAR     37  34  87 CALM      30.06F
WOLF POINT     CLEAR     43  36  76 E8        30.01F
MILES CITY     CLEAR     57  39  51 SE10      30.00F
BAKER          CLEAR     47  36  65 SE10      30.07F
$$

CITY           SKY/WX    TMP DP  RH WIND       PRES   REMARKS
BILLINGS       CLOUDY    56  43  61 SW5       29.99F
GREAT FALLS    PTCLDY    57  44  62 S8        29.94S
REGINA         CLEAR     43  37  81 E9        30.02F
ESTEVAN        PTCLDY    45  41  87 S5        30.07F
$$




USA.gov is the U.S. government's official web portal to all federal, state and local government web resources and services.